Date String (YYYY-MM-DD hh:mm:ss) UTC,Instrument flags,Ambient pressure (hPa),Sample flow (lpm),Bypass flow (lpm),Sample temperature (°C),Ambient temperature (°C),ASC tube jacket temperature (°C),LED temperature (°C),Box temperature (°C),Sample RH (%),Span deviation,Mass concentration (μg/m³),Mass concentration (μg/m³),Mass concentration (μg/m³)
DateTimeUTC,F1_M11,P_M11,Q1_M11,Q2_M11,T1_M11,T2_M11,T3_M11,T4_M11,T5_M11,U1_M11,ZSPAN_M11,X0_M11,X2_M11,X1_M11
2023-04-24 11:00:00,,0825.3,4.99,0.00,23.3,21.7,00.0,31.7,24.9,14.5,-000.4,0011.10,0007.03,0006.57
2023-04-24 11:01:00,,0825.3,5.00,0.00,23.3,21.7,00.0,31.7,24.9,14.5,0000.4,0011.00,0007.05,0006.58
2023-04-24 11:02:00,,0825.2,5.00,0.00,23.3,21.7,00.0,31.7,24.9,14.5,0000.9,0011.03,0007.06,0006.59
2023-04-24 11:03:00,,0825.3,5.00,0.00,23.3,21.7,00.0,31.7,24.9,14.5,0000.5,0010.99,0007.06,0006.60
2023-04-24 11:04:00,,0825.3,5.00,0.00,23.3,21.7,00.0,31.7,24.9,14.6,0000.8,0010.92,0007.03,0006.59
2023-04-24 11:05:00,,0825.2,5.01,0.00,23.3,21.7,00.0,31.7,24.9,14.7,0000.9,0010.88,0007.03,0006.60
2023-04-24 11:06:00,,0825.3,5.00,0.00,23.3,21.7,00.0,31.7,24.9,14.8,0001.5,0010.95,0007.06,0006.60
2023-04-24 11:07:00,,0825.2,5.00,0.00,23.3,21.7,00.0,31.7,24.9,14.8,0001.4,0010.97,0007.09,0006.62
2023-04-24 11:08:00,,0825.2,5.00,0.00,23.3,21.7,00.0,31.7,24.9,14.9,0001.5,0010.63,0007.12,0006.64
2023-04-24 11:09:00,,0825.2,4.99,0.00,23.3,21.7,00.0,31.7,24.9,15.0,0002.9,0010.49,0007.16,0006.65
2023-04-24 11:10:00,,0825.3,4.99,0.00,23.3,21.7,00.0,31.7,24.9,15.1,0003.1,0010.20,0007.22,0006.69
2023-04-24 11:11:00,,0825.3,5.00,0.00,23.3,21.7,00.0,31.7,24.9,15.0,0002.7,0010.51,0007.36,0006.76
2023-04-24 11:12:00,,0825.3,5.00,0.00,23.3,21.8,00.0,31.7,24.9,15.0,0002.0,0010.76,0007.38,0006.78
2023-04-24 11:13:00,,0825.3,5.00,0.00,23.3,21.7,00.0,31.7,24.9,15.1,0001.4,0011.48,0007.40,0006.81
2023-04-24 11:14:00,,0825.4,5.00,0.00,23.3,21.7,00.0,31.6,24.8,15.2,0001.1,0011.51,0007.44,0006.85
2023-04-24 11:15:00,,0825.4,5.00,0.00,23.2,21.7,00.0,31.6,24.8,15.3,0001.1,0011.53,0007.47,0006.88
2023-04-24 11:16:00,,0825.4,4.99,0.00,23.2,21.6,00.0,31.6,24.7,15.0,0001.5,0011.62,0007.50,0006.90
2023-04-24 11:17:00,,0825.4,4.99,0.00,23.2,21.5,00.0,31.6,24.7,15.0,0000.6,0011.59,0007.49,0006.90
2023-04-24 11:18:00,,0825.4,4.99,0.00,23.1,21.5,00.0,31.6,24.7,15.0,-000.2,0011.61,0007.49,0006.89
2023-04-24 11:19:00,,0825.4,5.00,0.00,23.1,21.5,00.0,31.6,24.7,15.0,-000.2,0011.69,0007.51,0006.89
2023-04-24 11:20:00,,0825.5,5.00,0.00,23.1,21.4,00.0,31.6,24.7,15.0,-000.9,0011.58,0007.45,0006.86
2023-04-24 11:21:00,,0825.5,5.00,0.00,23.1,21.4,00.0,31.6,24.7,15.2,-000.6,0011.50,0007.42,0006.84
2023-04-24 11:22:00,,0825.4,5.00,0.00,23.1,21.4,00.0,31.6,24.6,15.3,-000.5,0011.21,0007.30,0006.79
2023-04-24 11:23:00,,0825.5,5.00,0.00,23.1,21.3,00.0,31.5,24.6,15.4,-000.3,0011.00,0007.28,0006.78
2023-04-24 11:24:00,,0825.5,5.00,0.00,23.0,21.3,00.0,31.5,24.5,15.4,0000.2,0010.19,0007.24,0006.75
2023-04-24 11:25:00,,0825.6,5.00,0.00,23.0,21.3,00.0,31.5,24.6,15.4,0000.6,0010.16,0007.22,0006.72
2023-04-24 11:26:00,,0825.5,5.00,0.00,23.0,21.2,00.0,31.5,24.5,15.5,0000.1,0010.22,0007.24,0006.71
2023-04-24 11:27:00,,0825.5,5.00,0.00,23.0,21.2,00.0,31.5,24.5,15.6,-000.7,0010.28,0007.25,0006.72
2023-04-24 11:28:00,,0825.5,5.00,0.00,22.9,21.2,00.0,31.5,24.4,15.5,-001.1,0010.49,0007.31,0006.74
2023-04-24 11:29:00,,0825.6,5.00,0.00,22.9,21.1,00.0,31.5,24.4,15.3,-000.7,0010.54,0007.34,0006.76
2023-04-24 11:30:00,,0825.6,5.00,0.00,22.9,21.1,00.0,31.4,24.4,15.4,-001.0,0010.44,0007.30,0006.76
2023-04-24 11:31:00,,0825.6,5.00,0.00,22.9,21.1,00.0,31.4,24.3,15.6,-000.8,0010.51,0007.32,0006.78
2023-04-24 11:32:00,,0825.6,5.00,0.00,22.8,21.1,00.0,31.4,24.3,15.6,-001.2,0010.64,0007.39,0006.81
2023-04-24 11:33:00,,0825.6,5.00,0.00,22.8,21.0,00.0,31.4,24.3,15.8,-001.5,0010.69,0007.41,0006.82
2023-04-24 11:34:00,,0825.6,5.00,0.00,22.8,21.0,00.0,31.4,24.2,15.8,-001.3,0010.68,0007.42,0006.82
2023-04-24 11:35:00,,0825.6,5.00,0.00,22.7,21.0,00.0,31.3,24.2,15.7,-001.1,0010.84,0007.44,0006.83
2023-04-24 11:36:00,,0825.6,5.00,0.00,22.7,20.9,00.0,31.3,24.2,15.8,-001.3,0011.06,0007.47,0006.83
2023-04-24 11:37:00,,0825.6,5.00,0.00,22.7,20.9,00.0,31.3,24.1,16.0,-001.2,0011.10,0007.47,0006.84
2023-04-24 11:38:00,,0825.6,5.00,0.00,22.7,20.9,00.0,31.3,24.1,16.0,-000.6,0011.16,0007.48,0006.83
2023-04-24 11:39:00,,0825.6,5.00,0.00,22.7,20.8,00.0,31.2,24.2,15.9,0000.2,0011.16,0007.46,0006.83
2023-04-24 11:40:00,,0825.6,5.00,0.00,22.6,20.8,00.0,31.2,24.2,15.8,0000.9,0011.24,0007.45,0006.83
2023-04-24 11:41:00,,0825.6,4.99,0.00,22.6,20.8,00.0,31.2,24.2,16.0,0002.0,0011.27,0007.48,0006.84
2023-04-24 11:42:00,,0825.6,5.00,0.00,22.6,20.9,00.0,31.2,24.1,16.1,0003.4,0011.30,0007.52,0006.87
2023-04-24 11:43:00,,0825.6,5.00,0.00,22.6,20.9,00.0,31.2,24.1,16.2,0004.1,0011.39,0007.54,0006.89
2023-04-24 11:44:00,,0825.7,5.01,0.00,22.6,20.9,00.0,31.2,24.1,16.3,0004.2,0011.84,0007.61,0006.93
2023-04-24 11:45:00,,0825.7,5.01,0.00,22.6,20.8,00.0,31.1,24.1,16.4,0004.4,0012.08,0007.66,0006.95
2023-04-24 11:46:00,,0825.6,5.00,0.00,22.6,20.9,00.0,31.1,24.1,16.6,0004.3,0012.03,0007.70,0006.99
2023-04-24 11:47:00,,0825.7,5.00,0.00,22.6,20.9,00.0,31.1,24.1,16.6,0004.3,0011.95,0007.76,0007.04
2023-04-24 11:48:00,,0825.6,5.00,0.00,22.6,20.9,00.0,31.1,24.1,16.5,0004.1,0012.02,0007.80,0007.08
2023-04-24 11:49:00,,0825.6,5.00,0.00,22.6,20.9,00.0,31.1,24.1,16.3,0003.9,0012.00,0007.83,0007.12
2023-04-24 11:50:00,,0825.7,5.00,0.00,22.5,20.9,00.0,31.1,24.1,16.2,0003.9,0012.07,0007.84,0007.13
2023-04-24 11:51:00,,0825.7,4.99,0.00,22.5,20.9,00.0,31.1,24.1,16.2,0003.9,0012.24,0007.87,0007.16
2023-04-24 11:52:00,,0825.6,5.00,0.00,22.5,20.9,00.0,31.0,24.1,16.3,0003.5,0012.37,0007.93,0007.20
2023-04-24 11:53:00,,0825.7,5.00,0.00,22.5,20.9,00.0,31.0,24.1,16.4,0003.1,0012.34,0007.93,0007.21
2023-04-24 11:54:00,,0825.7,5.01,0.00,22.5,20.9,00.0,31.0,24.1,16.6,0003.0,0012.35,0007.95,0007.21
2023-04-24 11:55:00,,0825.7,5.00,0.00,22.5,20.9,00.0,31.0,24.1,16.6,0002.8,0012.17,0007.94,0007.20
2023-04-24 11:56:00,,0825.8,4.98,0.00,22.6,21.0,00.0,31.0,24.1,16.5,0002.2,0011.90,0007.94,0007.22
2023-04-24 11:57:00,,0825.8,5.00,0.00,22.6,21.0,00.0,31.0,24.2,16.5,0002.0,0011.88,0007.95,0007.23
2023-04-24 11:58:00,,0825.8,5.00,0.00,22.6,21.1,00.0,31.0,24.2,16.4,0001.7,0012.04,0007.95,0007.21
2023-04-24 11:59:00,,0825.8,5.00,0.00,22.6,21.1,00.0,31.0,24.2,16.3,0001.8,0012.08,0007.94,0007.19
